This is the latest recevied weather packets stored in our database for station/object KF4WSW-13. If no packets are shown the sender has not sent any weather packets the latest 10 day(s).
| Time | Temp. | Humidity | Pressure | Rain* | Wind** | Luminosity | Snow |
|---|---|---|---|---|---|---|---|
| 1777549689 | 24.44° C | 81% | 1010.3 hPa | 0 mm | - | 28 W/m² | - |
| 1777549389 | 24.44° C | 81% | 1010.6 hPa | 0 mm | - | 18 W/m² | - |
| 1777549086 | 24.44° C | 80% | 1010.4 hPa | 0 mm | - | 13 W/m² | - |
| 1777548782 | 24.44° C | 79% | 1010.3 hPa | 0 mm | - | 22 W/m² | - |
| 1777548480 | 24.44° C | 79% | 1010.2 hPa | 0 mm | - | 19 W/m² | - |
| 1777548176 | 24.44° C | 78% | 1010 hPa | 0 mm | - | 16 W/m² | - |
| 1777547873 | 24.44° C | 77% | 1010.3 hPa | 0 mm | - | 12 W/m² | - |
| 1777547569 | 23.89° C | 77% | 1009.9 hPa | 0 mm | - | 11 W/m² | - |
| 1777547266 | 23.89° C | 78% | 1009.9 hPa | 0 mm | - | 10 W/m² | - |
| 1777546963 | 23.89° C | 78% | 1009.9 hPa | 0 mm | - | 8 W/m² | - |
| 1777546660 | 23.89° C | 78% | 1009.7 hPa | 0 mm | - | 5 W/m² | - |
| 1777546356 | 23.89° C | 79% | 1010 hPa | 0 mm | - | 2 W/m² | - |
| 1777546054 | 23.89° C | 80% | 1009.9 hPa | 0 mm | - | 1 W/m² | - |
| 1777545750 | 23.89° C | 82% | 1009.8 hPa | 0 mm | - | 0 W/m² | - |
| 1777545447 | 23.33° C | 83% | 1009.8 hPa | 0 mm | - | 0 W/m² | - |
| 1777545144 | 23.89° C | 83% | 1009.6 hPa | 0 mm | - | 0 W/m² | - |
| 1777544842 | 23.89° C | 83% | 1009.6 hPa | 0 mm | - | 0 W/m² | - |
| 1777544537 | 23.89° C | 83% | 1009.7 hPa | 0 mm | - | 0 W/m² | - |
| 1777544234 | 23.89° C | 83% | 1009.5 hPa | 0 mm | - | 0 W/m² | - |
| 1777543931 | 23.89° C | 83% | 1009.7 hPa | 0 mm | - | 0 W/m² | - |
| 1777543628 | 23.89° C | 83% | 1009.8 hPa | 0 mm | - | 0 W/m² | - |
| 1777543323 | 23.89° C | 83% | 1010 hPa | 0 mm | - | 0 W/m² | - |
| 1777543019 | 23.89° C | 83% | 1009.8 hPa | 0 mm | - | 0 W/m² | - |
| 1777542716 | 23.89° C | 83% | 1009.9 hPa | 0 mm | - | 0 W/m² | - |
| 1777542413 | 23.89° C | 83% | 1010.1 hPa | 0 mm | - | 0 W/m² | - |
* Rain latest hour (hover to see other rain measurements)
** Current wind speed in m/s (hover to see current wind gust speed)